This is the latest recevied weather packets stored in our database for station/object W0WFX-2. If no packets are shown the sender has not sent any weather packets the latest 10 day(s).
| Time | Temp. | Humidity | Pressure | Rain* | Wind** | Luminosity | Snow |
|---|---|---|---|---|---|---|---|
| 1788467073 | 36.67° C | 38% | 1011.7 hPa | 0 mm | - | 56 W/m² | - |
| 1788466749 | 36.11° C | 40% | 1011.6 hPa | 0 mm | - | 57 W/m² | - |
| 1788466445 | 36.67° C | 38% | 1011.5 hPa | 0 mm | - | 57 W/m² | - |
| 1788466143 | 37.22° C | 38% | 1011.5 hPa | 0 mm | - | 57 W/m² | - |
| 1788465838 | 36.67° C | 38% | 1011.9 hPa | 0 mm | - | 57 W/m² | - |
| 1788465534 | 36.67° C | 38% | 1011.7 hPa | 0 mm | - | 57 W/m² | - |
| 1788465230 | 37.22° C | 37% | 1011.9 hPa | 0 mm | - | 58 W/m² | - |
| 1788464924 | 37.22° C | 38% | 1011.9 hPa | 0 mm | - | 59 W/m² | - |
| 1788464619 | 37.22° C | 38% | 1012.1 hPa | 0 mm | - | 688 W/m² | - |
| 1788464315 | 37.22° C | 38% | 1012.1 hPa | 0 mm | - | 696 W/m² | - |
| 1788464012 | 36.67° C | 38% | 1012.2 hPa | 0 mm | - | 699 W/m² | - |
| 1788463707 | 36.67° C | 38% | 1012.4 hPa | 0 mm | - | 707 W/m² | - |
| 1788463402 | 36.67° C | 38% | 1012.2 hPa | 0 mm | - | 711 W/m² | - |
| 1788463098 | 36.67° C | 38% | 1012.3 hPa | 0 mm | - | 716 W/m² | - |
| 1788462794 | 36.67° C | 38% | 1012.4 hPa | 0 mm | - | 718 W/m² | - |
| 1788462494 | 36.67° C | 38% | 1012.3 hPa | 0 mm | - | 724 W/m² | - |
| 1788462188 | 36.67° C | 39% | 1012.4 hPa | 0 mm | - | 728 W/m² | - |
| 1788461883 | 36.67° C | 39% | 1012.5 hPa | 0 mm | - | 730 W/m² | - |
| 1788461583 | 36.67° C | 38% | 1012.7 hPa | 0 mm | - | 732 W/m² | - |
| 1788461279 | 36.11° C | 38% | 1012.5 hPa | 0 mm | - | 732 W/m² | - |
| 1788460975 | 36.67° C | 38% | 1012.7 hPa | 0 mm | - | 735 W/m² | - |
| 1788460670 | 36.67° C | 39% | 1012.6 hPa | 0 mm | - | 737 W/m² | - |
| 1788460364 | 36.67° C | 40% | 1012.8 hPa | 0 mm | - | 741 W/m² | - |
| 1788460063 | 36.67° C | 39% | 1012.7 hPa | 0 mm | - | 742 W/m² | - |
| 1788459758 | 36.67° C | 40% | 1012.9 hPa | 0 mm | - | 743 W/m² | - |
* Rain latest hour (hover to see other rain measurements)
** Current wind speed in m/s (hover to see current wind gust speed)